TimeAKDT,TemperatureF,Dew PointF,Humidity,Sea Level PressureIn,VisibilityMPH,Wind Direction,Wind SpeedMPH,Gust SpeedMPH,PrecipitationIn,Events,Conditions,WindDirDegrees,DateUTC
12:57 AM,15.1,12.9,91,30.51,10.0,NW,11.5,-,N/A,,Clear,320,2013-04-23 08:57:00
1:57 AM,15.8,14.0,93,30.50,10.0,NNW,10.4,-,N/A,,Partly Cloudy,330,2013-04-23 09:57:00
2:09 AM,14.0,12.2,93,30.50,1.5,NW,10.4,-,0.00,Snow,Light Snow,320,2013-04-23 10:09:00
2:13 AM,14.0,12.2,93,30.50,0.8,NNW,10.4,-,0.00,Snow,Light Snow,330,2013-04-23 10:13:00
2:17 AM,14.0,12.2,93,30.51,0.5,NNW,9.2,-,0.00,Fog-Snow,Light Snow,330,2013-04-23 10:17:00
2:44 AM,12.2,12.2,100,30.52,0.8,NNW,6.9,-,0.00,Snow,Light Snow,340,2013-04-23 10:44:00
2:49 AM,12.2,12.2,100,30.52,1.8,NW,8.1,-,0.00,Snow,Light Snow,320,2013-04-23 10:49:00
2:54 AM,12.2,10.4,92,30.53,0.8,NW,11.5,-,0.00,Snow,Light Snow,310,2013-04-23 10:54:00
2:57 AM,12.2,10.4,92,30.53,0.5,NW,11.5,-,0.00,Fog-Snow,Light Snow,310,2013-04-23 10:57:00
3:03 AM,12.2,10.4,92,30.52,0.2,NW,9.2,-,0.00,Fog-Snow,Light Snow,320,2013-04-23 11:03:00
3:20 AM,15.8,15.8,100,30.52,0.5,NNW,8.1,-,0.00,Fog-Snow,Light Snow,340,2013-04-23 11:20:00
3:37 AM,15.8,15.8,100,30.51,0.8,NNE,8.1,-,0.00,,Mostly Cloudy,20,2013-04-23 11:37:00
3:40 AM,15.8,15.8,100,30.50,1.2,North,10.4,-,0.00,,Scattered Clouds,10,2013-04-23 11:40:00
3:57 AM,16.0,15.1,96,30.51,10.0,NNE,10.4,-,0.00,,Clear,30,2013-04-23 11:57:00
4:14 AM,12.2,10.4,92,30.50,9.0,ENE,4.6,-,N/A,,Partly Cloudy,70,2013-04-23 12:14:00
4:39 AM,12.2,10.4,92,30.51,1.8,East,5.8,-,N/A,,Partly Cloudy,90,2013-04-23 12:39:00
4:45 AM,10.4,8.6,92,30.51,1.0,ENE,3.5,-,N/A,,Clear,70,2013-04-23 12:45:00
4:51 AM,10.4,8.6,92,30.51,1.2,East,3.5,-,N/A,,Clear,90,2013-04-23 12:51:00
4:57 AM,10.0,9.0,95,30.52,1.2,East,3.5,-,N/A,,Clear,90,2013-04-23 12:57:00
5:01 AM,10.4,8.6,92,30.51,1.0,ENE,4.6,-,N/A,,Clear,70,2013-04-23 13:01:00
5:09 AM,10.4,8.6,92,30.51,1.5,ENE,4.6,-,N/A,,Clear,70,2013-04-23 13:09:00
5:13 AM,10.4,10.4,100,30.51,3.0,ENE,4.6,-,N/A,,Clear,70,2013-04-23 13:13:00
5:29 AM,12.2,10.4,92,30.51,3.0,East,5.8,-,N/A,,Partly Cloudy,90,2013-04-23 13:29:00
5:32 AM,10.4,10.4,100,30.51,2.0,East,6.9,-,N/A,,Partly Cloudy,90,2013-04-23 13:32:00
5:42 AM,10.4,8.6,92,30.51,2.0,East,5.8,-,0.00,Snow,Light Snow,90,2013-04-23 13:42:00
5:45 AM,10.4,8.6,92,30.51,1.0,ENE,4.6,-,0.00,Snow,Light Snow,70,2013-04-23 13:45:00
5:49 AM,12.2,10.4,92,30.51,0.5,East,4.6,-,0.00,Fog-Snow,Light Snow,80,2013-04-23 13:49:00
5:57 AM,12.0,10.0,92,30.53,0.5,East,4.6,-,0.00,Fog-Snow,Light Snow,80,2013-04-23 13:57:00
6:12 AM,12.2,10.4,92,30.51,0.8,Calm,Calm,-,0.00,Snow,Light Snow,0,2013-04-23 14:12:00
6:19 AM,12.2,10.4,92,30.52,1.0,North,5.8,-,0.00,Snow,Light Snow,350,2013-04-23 14:19:00
6:25 AM,12.2,10.4,92,30.52,0.8,NNW,6.9,-,0.00,Snow,Light Snow,330,2013-04-23 14:25:00
6:29 AM,12.2,10.4,92,30.52,0.5,NNW,8.1,-,0.00,Fog-Snow,Light Snow,340,2013-04-23 14:29:00
6:36 AM,12.2,10.4,92,30.52,0.2,North,11.5,-,0.00,Fog-Snow,Light Snow,10,2013-04-23 14:36:00
6:46 AM,12.2,10.4,92,30.53,0.5,North,9.2,-,0.00,Fog-Snow,Light Snow,10,2013-04-23 14:46:00
6:54 AM,12.2,10.4,92,30.53,1.0,NNW,8.1,-,0.00,Snow,Light Snow,330,2013-04-23 14:54:00
6:57 AM,10.4,8.6,92,30.52,2.0,NNW,8.1,-,0.00,,Mostly Cloudy,330,2013-04-23 14:57:00
7:00 AM,10.4,8.6,92,30.52,9.0,NW,6.9,-,0.00,,Mostly Cloudy,310,2013-04-23 15:00:00
7:07 AM,8.6,5.0,85,30.52,1.5,WNW,5.8,-,0.00,,Mostly Cloudy,290,2013-04-23 15:07:00
7:10 AM,6.8,3.2,85,30.52,0.8,WNW,5.8,-,0.00,,Mostly Cloudy,300,2013-04-23 15:10:00
7:14 AM,6.8,3.2,85,30.52,0.5,Variable,3.5,-,0.00,Fog-Snow,Light Snow,0,2013-04-23 15:14:00
7:23 AM,6.8,3.2,85,30.52,0.8,NW,4.6,-,0.00,Snow,Light Snow,320,2013-04-23 15:23:00
7:26 AM,6.8,5.0,92,30.52,1.2,NNW,4.6,-,0.00,Snow,Light Snow,330,2013-04-23 15:26:00
7:49 AM,8.6,6.8,92,30.52,6.0,North,8.1,-,0.00,Snow,Light Snow,350,2013-04-23 15:49:00
7:57 AM,10.9,10.0,96,30.53,7.0,North,8.1,-,0.00,Snow,Light Snow,350,2013-04-23 15:57:00
8:05 AM,12.2,10.4,92,30.52,2.0,North,6.9,-,0.00,Snow,Light Snow,350,2013-04-23 16:05:00
8:18 AM,14.0,12.2,93,30.52,4.0,NNE,12.7,-,0.00,Snow,Light Snow,30,2013-04-23 16:18:00
8:39 AM,14.0,12.2,93,30.51,4.0,NE,6.9,-,0.00,Snow,Light Snow,50,2013-04-23 16:39:00
8:49 AM,12.2,10.4,92,30.51,10.0,NE,6.9,-,0.00,,Scattered Clouds,50,2013-04-23 16:49:00
8:57 AM,12.2,10.4,92,30.51,10.0,Variable,5.8,-,0.00,,Mostly Cloudy,0,2013-04-23 16:57:00
9:01 AM,12.2,10.4,92,30.51,10.0,Variable,3.5,-,0.00,,Mostly Cloudy,0,2013-04-23 17:01:00
9:08 AM,12.2,10.4,92,30.51,10.0,ESE,4.6,-,0.00,,Scattered Clouds,110,2013-04-23 17:08:00
9:21 AM,12.2,10.4,92,30.52,10.0,SE,3.5,-,0.00,,Mostly Cloudy,130,2013-04-23 17:21:00
9:36 AM,15.8,14.0,93,30.52,10.0,Calm,Calm,-,0.00,,Mostly Cloudy,0,2013-04-23 17:36:00
9:57 AM,16.0,15.1,96,30.54,10.0,Calm,Calm,-,0.00,,Overcast,0,2013-04-23 17:57:00
10:57 AM,19.0,17.1,92,30.54,10.0,ESE,5.8,-,0.00,Snow,Light Snow,110,2013-04-23 18:57:00
11:44 AM,21.2,19.4,93,30.53,1.8,SSW,4.6,-,0.00,,Overcast,210,2013-04-23 19:44:00
11:50 AM,21.2,19.4,93,30.53,1.0,South,4.6,-,0.00,,Overcast,190,2013-04-23 19:50:00
11:53 AM,21.2,19.4,93,30.52,0.8,South,5.8,-,0.00,,Overcast,190,2013-04-23 19:53:00
11:57 AM,21.9,19.9,92,30.53,0.8,South,6.9,-,0.00,,Overcast,180,2013-04-23 19:57:00
12:06 PM,21.2,19.4,93,30.52,1.0,South,5.8,-,N/A,,Overcast,190,2013-04-23 20:06:00
12:12 PM,21.2,19.4,93,30.52,0.8,SW,4.6,-,N/A,,Overcast,220,2013-04-23 20:12:00
12:28 PM,21.2,19.4,93,30.53,0.5,SW,5.8,-,N/A,Fog,Light Freezing Fog,230,2013-04-23 20:28:00
12:36 PM,21.2,19.4,93,30.54,0.2,West,6.9,-,N/A,Fog,Light Freezing Fog,260,2013-04-23 20:36:00
12:57 PM,21.9,21.0,96,30.55,0.2,WSW,6.9,-,N/A,Fog,Light Freezing Fog,250,2013-04-23 20:57:00
1:12 PM,23.0,21.2,93,30.53,0.5,WNW,3.5,-,N/A,Fog,Light Freezing Fog,290,2013-04-23 21:12:00
1:45 PM,30.2,24.8,80,30.53,0.2,NW,4.6,-,N/A,,Haze,320,2013-04-23 21:45:00
1:54 PM,28.4,21.2,74,30.53,0.5,NW,5.8,-,N/A,,Haze,310,2013-04-23 21:54:00
1:57 PM,27.0,21.9,81,30.54,0.5,WNW,5.8,-,N/A,,Haze,300,2013-04-23 21:57:00
2:11 PM,24.8,21.2,86,30.52,0.2,WNW,4.6,-,N/A,Fog,Light Freezing Fog,300,2013-04-23 22:11:00
2:22 PM,24.8,21.2,86,30.53,0.5,West,5.8,-,N/A,Fog,Light Freezing Fog,280,2013-04-23 22:22:00
2:32 PM,26.6,21.2,80,30.52,0.8,NW,3.5,-,N/A,,Haze,310,2013-04-23 22:32:00
2:43 PM,26.6,21.2,80,30.51,1.2,NW,4.6,-,N/A,,Haze,310,2013-04-23 22:43:00
2:49 PM,26.6,21.2,80,30.51,3.0,WNW,5.8,-,N/A,,Haze,300,2013-04-23 22:49:00
2:57 PM,26.1,21.0,81,30.53,10.0,WNW,5.8,-,N/A,,Overcast,300,2013-04-23 22:57:00
3:57 PM,27.0,23.0,85,30.53,8.0,NW,4.6,-,N/A,,Overcast,310,2013-04-23 23:57:00
4:57 PM,34.0,24.1,67,30.52,10.0,Calm,Calm,-,N/A,,Overcast,0,2013-04-24 00:57:00
5:57 PM,30.0,24.1,79,30.51,6.0,NNE,5.8,-,N/A,,Haze,30,2013-04-24 01:57:00
6:57 PM,30.0,25.0,82,30.51,10.0,NNE,3.5,-,N/A,,Overcast,20,2013-04-24 02:57:00
7:46 PM,30.2,24.8,80,30.51,10.0,North,3.5,-,N/A,,Scattered Clouds,10,2013-04-24 03:46:00
7:57 PM,30.0,25.0,82,30.52,10.0,NNW,3.5,-,N/A,,Partly Cloudy,330,2013-04-24 03:57:00
8:25 PM,28.4,24.8,86,30.51,10.0,NNW,4.6,-,N/A,,Mostly Cloudy,330,2013-04-24 04:25:00
8:57 PM,28.0,25.0,88,30.52,10.0,NW,6.9,-,N/A,,Overcast,310,2013-04-24 04:57:00
9:08 PM,26.6,24.8,93,30.50,10.0,NNW,5.8,-,N/A,,Overcast,330,2013-04-24 05:08:00
9:48 PM,26.6,24.8,93,30.50,2.5,NNW,3.5,-,N/A,,Overcast,330,2013-04-24 05:48:00
9:57 PM,27.0,25.0,92,30.51,2.5,WNW,5.8,-,N/A,,Overcast,300,2013-04-24 05:57:00
10:03 PM,26.6,24.8,93,30.50,4.0,NW,5.8,-,0.00,Snow,Light Snow,310,2013-04-24 06:03:00
10:57 PM,26.1,25.0,96,30.52,3.0,Calm,Calm,-,0.00,Snow,Light Snow,0,2013-04-24 06:57:00
11:57 PM,26.1,24.1,92,30.51,4.0,Calm,Calm,-,0.00,,Overcast,0,2013-04-24 07:57:00